Marshall, MI

6:40 PM EDT on September 25, 2016 (GMT -0400)
Brooks

Weather History for KRMY - October, 2012

Change the Weather History Date:

Sunday, October 21, 2012

  Actual Average (KBTL) Record (KBTL)
Temperature  
Mean Temperature 48 °F 48 °F  
Max Temperature 61 °F 59 °F 77 °F (2007)
Min Temperature 35 °F 38 °F 28 °F (2002)
Degree Days  
Heating Degree Days 17 16  
Month to date heating degree days 283  
Since 1 July heating degree days 480  
Cooling Degree Days 0 0  
Month to date cooling degree days 2  
Year to date cooling degree days 575  
Moisture  
Dew Point 40 °F    
Average Humidity 74    
Maximum Humidity 95    
Minimum Humidity 41    
Precipitation  
Precipitation 0.00 in 0.10 in 0.40 in (1998)
Month to date precipitation 2.15  
Year to date precipitation 27.34  
Sea Level Pressure  
Sea Level Pressure 30.04 in    
Wind  
Wind Speed 2 mph (South)    
Max Wind Speed 9 mph    
Max Gust Speed -    
Visibility 9 miles    
Events Fog    
T = Trace of Precipitation, MM = Missing Value Source: NWS Daily Summary

Daily Weather History Graph

Daily Weather History Graph

Search for Another Location

Airport or City:

Trip Planner

Search our weather history database for the weather conditions in past years. The results will help you decide how hot, cold, wet, or windy it might be!

Date:

Astronomy

Oct. 21, 2012 Rise Set
Actual Time 8:00 AM EDT 6:47 PM EDT
Civil Twilight 7:31 AM EDT 7:16 PM EDT
Nautical Twilight 6:58 AM EDT 7:49 PM EDT
Astronomical Twilight 6:26 AM EDT 8:21 PM EDT
Moon 2:22 PM EDT (10/21) No Moon Set
Length of Visible Light 11h 44m
Length of Day
10h 47m
Waxing Crescent, 45% of the Moon is Illuminated
Oct 21
Waxing Crescent
Oct 21
First Quarter
Oct 29
Full
Nov 6
Last Quarter
Nov 13
New

Hourly Weather History & Observations

Time (EDT) Temp. Dew Point Humidity Pressure Visibility Wind Dir Wind Speed Gust Speed Precip Events Conditions
12:34 AM 40.5 °F 38.8 °F 94% 29.91 in 1.2 mi Calm Calm - N/A   Mostly Cloudy
12:53 AM 40.6 °F 39.0 °F 94% 29.92 in 1.8 mi Calm Calm - N/A   Mist
1:34 AM 41.2 °F 39.7 °F 95% 29.94 in 1.8 mi Calm Calm - N/A   Mist
1:53 AM 35.6 °F 34.2 °F 94% 29.95 in 0.2 mi Calm Calm - N/A Fog Fog
2:13 AM 36.3 °F 35.1 °F 95% 29.95 in 0.2 mi Calm Calm - N/A Fog Fog
2:34 AM 36.0 °F 34.5 °F 94% 29.96 in 0.5 mi Calm Calm - N/A Fog Fog
2:53 AM 35.2 °F 33.8 °F 94% 29.96 in 0.5 mi Calm Calm - N/A Fog Fog
3:13 AM 35.8 °F 34.3 °F 94% 29.97 in 0.5 mi Calm Calm - N/A Fog Fog
3:34 AM 37.2 °F 35.8 °F 95% 29.98 in 1.2 mi Calm Calm - N/A   Overcast
3:53 AM 39.7 °F 38.1 °F 94% 29.98 in 7.0 mi Calm Calm - N/A   Overcast
4:14 AM 40.3 °F 38.7 °F 94% 29.99 in 10.0 mi Calm Calm - N/A   Scattered Clouds
4:34 AM 41.2 °F 39.7 °F 95% 30.00 in 10.0 mi Calm Calm - N/A   Mostly Cloudy
4:53 AM 41.9 °F 40.5 °F 95% 30.00 in 10.0 mi Calm Calm - N/A   Overcast
5:14 AM 42.6 °F 41.0 °F 94% 30.00 in 10.0 mi Calm Calm - N/A   Overcast
5:34 AM 43.2 °F 41.5 °F 94% 30.00 in 10.0 mi Calm Calm - N/A   Overcast
5:53 AM 43.3 °F 41.5 °F 93% 30.01 in 10.0 mi Calm Calm - N/A   Overcast
6:14 AM 43.2 °F 41.2 °F 93% 30.02 in 10.0 mi Calm Calm - N/A   Mostly Cloudy
6:34 AM 42.3 °F 40.5 °F 93% 30.02 in 10.0 mi Calm Calm - N/A   Scattered Clouds
6:53 AM 42.1 °F 40.5 °F 94% 30.02 in 7.0 mi Calm Calm - N/A   Clear
7:14 AM 42.1 °F 40.5 °F 94% 30.03 in 10.0 mi Calm Calm - N/A   Clear
7:34 AM 40.8 °F 39.0 °F 93% 30.03 in 10.0 mi Calm Calm - N/A   Clear
7:53 AM 40.5 °F 38.7 °F 93% 30.04 in 10.0 mi Calm Calm - N/A   Clear
8:14 AM 40.5 °F 38.5 °F 93% 30.05 in 10.0 mi Calm Calm - N/A   Clear
8:34 AM 40.6 °F 38.8 °F 93% 30.06 in 10.0 mi Calm Calm - N/A   Clear
8:53 AM 41.5 °F 39.7 °F 93% 30.06 in 10.0 mi Calm Calm - N/A   Clear
9:14 AM 43.0 °F 40.8 °F 92% 30.07 in 10.0 mi Calm Calm - N/A   Clear
9:33 AM 44.2 °F 41.4 °F 90% 30.07 in 10.0 mi Calm Calm - N/A   Clear
9:54 AM 46.4 °F 42.6 °F 87% 30.07 in 10.0 mi Calm Calm - N/A   Clear
10:14 AM 48.2 °F 42.8 °F 82% 30.07 in 10.0 mi Calm Calm - N/A   Clear
10:33 AM 49.8 °F 43.3 °F 78% 30.08 in 10.0 mi SSW 4.6 mph - N/A   Clear
10:54 AM 51.6 °F 43.5 °F 74% 30.08 in 10.0 mi SSW 4.6 mph - N/A   Clear
11:14 AM 53.6 °F 43.9 °F 70% 30.08 in 10.0 mi WSW 5.8 mph - N/A   Clear
11:33 AM 54.1 °F 42.4 °F 65% 30.08 in 10.0 mi SW 5.8 mph - N/A   Clear
11:54 AM 55.6 °F 42.1 °F 60% 30.08 in 10.0 mi WSW 9.2 mph - N/A   Clear
12:14 PM 55.8 °F 41.0 °F 58% 30.08 in 10.0 mi SSW 8.1 mph - N/A   Clear
12:33 PM 56.5 °F 41.2 °F 57% 30.08 in 10.0 mi SW 9.2 mph - N/A   Clear
12:54 PM 57.4 °F 41.4 °F 55% 30.08 in 10.0 mi SSW 9.2 mph - N/A   Clear
1:14 PM 57.4 °F 40.6 °F 54% 30.07 in 10.0 mi SSW 3.5 mph - N/A   Clear
1:33 PM 58.6 °F 40.5 °F 51% 30.07 in 10.0 mi SW 6.9 mph - N/A   Clear
1:54 PM 58.5 °F 39.9 °F 50% 30.07 in 10.0 mi SSW 8.1 mph - N/A   Clear
2:13 PM 58.8 °F 40.3 °F 50% 30.06 in 10.0 mi Calm Calm - N/A   Clear
2:33 PM 59.4 °F 40.6 °F 50% 30.06 in 10.0 mi South 5.8 mph - N/A   Clear
2:53 PM 60.1 °F 40.6 °F 49% 30.05 in 10.0 mi SSW 4.6 mph - N/A   Clear
3:14 PM 60.1 °F 39.6 °F 47% 30.04 in 10.0 mi SSE 6.9 mph - N/A   Clear
3:33 PM 60.6 °F 40.3 °F 47% 30.04 in 10.0 mi South 9.2 mph - N/A   Clear
3:53 PM 60.6 °F 39.6 °F 46% 30.04 in 10.0 mi SSE 8.1 mph - N/A   Clear
4:14 PM 60.8 °F 38.3 °F 43% 30.03 in 10.0 mi SSE 8.1 mph - N/A   Clear
4:33 PM 60.6 °F 37.6 °F 42% 30.03 in 10.0 mi SSW 5.8 mph - N/A   Clear
4:53 PM 61.0 °F 38.3 °F 43% 30.03 in 10.0 mi South 8.1 mph - N/A   Clear
5:14 PM 60.8 °F 36.9 °F 41% 30.03 in 10.0 mi SSW 4.6 mph - N/A   Clear
5:33 PM 60.6 °F 37.6 °F 42% 30.04 in 10.0 mi SSW 3.5 mph - N/A   Clear
5:53 PM 60.3 °F 37.8 °F 43% 30.04 in 10.0 mi SSW 5.8 mph - N/A   Clear
6:14 PM 59.2 °F 38.1 °F 46% 30.04 in 10.0 mi South 4.6 mph - N/A   Clear
6:33 PM 57.9 °F 38.3 °F 48% 30.04 in 10.0 mi South 3.5 mph - N/A   Clear
6:54 PM 55.8 °F 38.8 °F 53% 30.04 in 10.0 mi Calm Calm - N/A   Clear
7:13 PM 54.7 °F 39.6 °F 57% 30.05 in 10.0 mi Calm Calm - N/A   Clear
7:33 PM 52.3 °F 40.1 °F 63% 30.05 in 10.0 mi Calm Calm - N/A   Clear
7:54 PM 50.4 °F 40.3 °F 68% 30.06 in 10.0 mi Calm Calm - N/A   Clear
8:13 PM 48.9 °F 40.3 °F 72% 30.06 in 10.0 mi Calm Calm - N/A   Clear
8:33 PM 47.7 °F 40.6 °F 77% 30.06 in 10.0 mi ESE 3.5 mph - N/A   Clear
8:54 PM 47.5 °F 40.5 °F 77% 30.06 in 10.0 mi SE 3.5 mph - N/A   Clear
9:13 PM 49.3 °F 40.3 °F 71% 30.06 in 10.0 mi Calm Calm - N/A   Clear
9:33 PM 46.9 °F 39.7 °F 76% 30.06 in 10.0 mi SE 3.5 mph - N/A   Clear
9:54 PM 48.2 °F 40.8 °F 76% 30.06 in 10.0 mi SE 3.5 mph - N/A   Clear
10:13 PM 49.5 °F 41.4 °F 74% 30.06 in 10.0 mi SE 3.5 mph - N/A   Clear
10:34 PM 48.6 °F 41.4 °F 76% 30.06 in 10.0 mi Calm Calm - N/A   Clear
10:54 PM 46.6 °F 41.2 °F 81% 30.06 in 10.0 mi Calm Calm - N/A   Clear
11:13 PM 45.7 °F 40.3 °F 81% 30.06 in 10.0 mi Calm Calm - N/A   Clear
11:34 PM 46.8 °F 41.5 °F 82% 30.07 in 10.0 mi Calm Calm - N/A   Clear
11:54 PM 48.2 °F 42.6 °F 81% 30.07 in 10.0 mi Calm Calm - N/A   Clear